Quillayute, WA

4:46 AM PST on February 24, 2018 (GMT -0800)
Quillayute

Weather History for KUIL - June, 2013

Change the Weather History Date:

Friday, June 28, 2013

  Actual Average Record
Temperature  
Mean Temperature 67 °F 57 °F  
Max Temperature 74 °F 65 °F 92 °F (1995)
Min Temperature 59 °F 49 °F 39 °F (1985)
Degree Days  
Heating Degree Days 0 8  
Month to date heating degree days 180 278  
Since 1 June heating degree days 180 278  
Since 1 July heating degree days 5249 5746  
Cooling Degree Days 2 0  
Month to date cooling degree days 2 0  
Year to date cooling degree days 5 1  
Since 1 June cooling degree days 2 0  
Growing Degree Days 16 (Base 50)    
Moisture  
Dew Point 59 °F    
Average Humidity 82    
Maximum Humidity 90    
Minimum Humidity 73    
Precipitation  
Precipitation T in 0.09 in 2.31 in (2002)
Month to date precipitation 2.90 3.32  
Year to date precipitation 58.80 52.07  
Sea Level Pressure  
Sea Level Pressure 30.14 in    
Wind  
Wind Speed 3 mph (ESE)    
Max Wind Speed 13 mph    
Max Gust Speed 16 mph    
Visibility 5 miles    
Events Fog , Rain    
T = Trace of Precipitation, MM = Missing Value Source: NWS Daily Summary

Daily Weather History Graph

Daily Weather History Graph

Search for Another Location

Airport or City:

Trip Planner

Search our weather history database for the weather conditions in past years. The results will help you decide how hot, cold, wet, or windy it might be!

Date:

Astronomy

Jun. 28, 2013 Rise Set
Actual Time 5:21 AM PDT 9:21 PM PDT
Civil Twilight 4:40 AM PDT 10:02 PM PDT
Nautical Twilight 3:43 AM PDT 10:59 PM PDT
Astronomical Twilight 2:09 AM PDT 12:32 AM PDT
Moon No Moon Rise 12:05 PM PDT (6/28)
Length of Visible Light 17h 21m
Length of Day
15h 59m
Waning Gibbous, 65% of the Moon is Illuminated
Jun 28
Waning Gibbous
Jun 29
Last Quarter
Jul 8
New
Jul 15
First Quarter
Jul 22
Full

Hourly Weather History & Observations

Time (PDT) Temp. Dew Point Humidity Pressure Visibility Wind Dir Wind Speed Gust Speed Precip Events Conditions
12:03 AM 60.8 °F 57.2 °F 88% 30.21 in 2.0 mi Calm Calm - N/A   Overcast
12:25 AM 60.8 °F 57.2 °F 88% 30.21 in 1.8 mi Calm Calm - N/A   Overcast
12:31 AM 60.8 °F 57.2 °F 88% 30.20 in 0.8 mi Calm Calm - N/A   Overcast
12:53 AM 61.0 °F 57.0 °F 87% 30.20 in 0.5 mi Calm Calm - N/A Fog Fog
1:04 AM 60.8 °F 57.2 °F 88% 30.20 in 1.5 mi Calm Calm - N/A   Overcast
1:14 AM 60.8 °F 57.2 °F 88% 30.20 in 2.0 mi NNE 3.5 mph - N/A   Overcast
1:19 AM 60.8 °F 57.2 °F 88% 30.20 in 1.2 mi NNE 3.5 mph - N/A   Overcast
1:40 AM 60.8 °F 57.2 °F 88% 30.20 in 1.5 mi Calm Calm - N/A   Overcast
1:44 AM 60.8 °F 57.2 °F 88% 30.19 in 0.8 mi Calm Calm - N/A   Overcast
1:53 AM 61.0 °F 57.9 °F 90% 30.19 in 0.2 mi Calm Calm - N/A Fog Fog
2:53 AM 60.1 °F 57.0 °F 90% 30.18 in 0.5 mi Calm Calm - N/A Fog Fog
3:01 AM 60.8 °F 57.2 °F 88% 30.17 in 0.2 mi Calm Calm - N/A Fog Fog
3:53 AM 59.0 °F 55.9 °F 90% 30.17 in 0.2 mi Calm Calm - N/A Fog Fog
4:53 AM 60.1 °F 55.9 °F 86% 30.15 in 0.2 mi NE 3.5 mph - N/A Fog Fog
5:08 AM 59.0 °F 55.4 °F 88% 30.15 in 0.8 mi East 4.6 mph - N/A   Mist
5:15 AM 60.8 °F 55.4 °F 82% 30.14 in 1.2 mi East 4.6 mph - N/A   Scattered Clouds
5:18 AM 60.8 °F 55.4 °F 82% 30.14 in 2.0 mi East 3.5 mph - N/A   Scattered Clouds
5:34 AM 59.0 °F 55.4 °F 88% 30.14 in 3.0 mi East 3.5 mph - N/A   Clear
5:53 AM 59.0 °F 55.9 °F 90% 30.15 in 4.0 mi Calm Calm - N/A   Clear
6:53 AM 61.0 °F 57.0 °F 87% 30.14 in 6.0 mi ENE 3.5 mph - N/A   Clear
7:53 AM 61.0 °F 57.0 °F 87% 30.13 in 7.0 mi East 3.5 mph - N/A   Overcast
8:53 AM 63.0 °F 59.0 °F 87% 30.12 in 7.0 mi Calm Calm - 0.00 in   Overcast
9:53 AM 64.9 °F 59.0 °F 81% 30.10 in - ENE 3.5 mph - N/A   Unknown
10:53 AM 68.0 °F 61.0 °F 78% 30.10 in 9.0 mi East 3.5 mph - 0.00 in   Overcast
11:53 AM 71.1 °F 62.1 °F 73% 30.10 in 9.0 mi Calm Calm - N/A   Overcast
12:53 PM 72.0 °F 62.1 °F 71% 30.11 in 9.0 mi SSW 8.1 mph - 0.00 in   Overcast
1:53 PM 71.1 °F 62.1 °F 73% 30.11 in 7.0 mi South 8.1 mph - 0.00 in Rain Light Rain
2:53 PM 72.0 °F 62.1 °F 71% 30.11 in 8.0 mi Variable 5.8 mph - 0.00 in   Mostly Cloudy
3:53 PM 72.0 °F 62.1 °F 71% 30.12 in 8.0 mi SW 10.4 mph - N/A   Partly Cloudy
4:13 PM 69.8 °F 60.8 °F 73% 30.12 in 8.0 mi SW 8.1 mph - N/A   Mostly Cloudy
4:45 PM 69.8 °F 60.8 °F 73% 30.12 in 8.0 mi SW 9.2 mph - N/A   Scattered Clouds
4:53 PM 69.1 °F 61.0 °F 75% 30.12 in 8.0 mi SW 9.2 mph - N/A   Mostly Cloudy
5:16 PM 68.0 °F 60.8 °F 78% 30.12 in 8.0 mi SSW 8.1 mph - N/A   Overcast
5:41 PM 68.0 °F 60.8 °F 78% 30.12 in 8.0 mi South 4.6 mph - N/A   Overcast
5:53 PM 68.0 °F 60.1 °F 76% 30.12 in 8.0 mi South 4.6 mph - N/A   Overcast
6:53 PM 68.0 °F 61.0 °F 78% 30.09 in 8.0 mi Calm Calm - N/A   Clear
7:53 PM 66.9 °F 60.1 °F 79% 30.09 in 9.0 mi Calm Calm - N/A   Partly Cloudy
8:53 PM 64.9 °F 60.1 °F 84% 30.08 in 8.0 mi Calm Calm - N/A   Scattered Clouds
9:53 PM 64.0 °F 59.0 °F 84% 30.09 in 9.0 mi Calm Calm - N/A   Clear
10:53 PM 63.0 °F 59.0 °F 87% 30.09 in 8.0 mi Calm Calm - N/A   Clear
11:53 PM 63.0 °F 59.0 °F 87% 30.10 in 6.0 mi Calm Calm - N/A   Partly Cloudy